Weather History for KTMB - October, 2012

Change the Weather History Date:

Friday, October 5, 2012

  Actual Average Record
Temperature  
Mean Temperature 84 °F -  
Max Temperature 89 °F 87 °F 92 °F (1992)
Min Temperature 78 °F 72 °F 69 °F (1992)
Cooling Degree Days 18    
Growing Degree Days 34 (Base 50)    
Moisture  
Dew Point 75 °F    
Average Humidity 77    
Maximum Humidity 90    
Minimum Humidity 57    
Precipitation  
Precipitation 0.00 in - - ()
Sea Level Pressure  
Sea Level Pressure 30.01 in    
Wind  
Wind Speed 6 mph (East)    
Max Wind Speed 13 mph    
Max Gust Speed -    
Visibility 10 miles    
Events      
Averages and records for this station are not official NWS values.
T = Trace of Precipitation, MM = Missing Value Source: NWS Daily Summary

Daily Weather History Graph

Daily Weather History Graph

Search for Another Location

Airport or City:

Trip Planner

Search our weather history database for the weather conditions in past years. The results will help you decide how hot, cold, wet, or windy it might be!

Date:

Astronomy

Oct. 05, 2012 Rise Set
Actual Time 7:15 AM EDT 7:03 PM EDT
Civil Twilight 6:52 AM EDT 7:26 PM EDT
Nautical Twilight 6:26 AM EDT 7:53 PM EDT
Astronomical Twilight 5:59 AM EDT 8:19 PM EDT
Moon 10:52 PM EDT (10/5) 11:55 AM EDT (10/5)
Length of Visible Light 12h 33m
Length of Day
11h 47m
Waning Gibbous, 74% of the Moon is Illuminated
Oct 5
Waning Gibbous
Oct 8
Last Quarter
Oct 15
New
Oct 21
First Quarter
Oct 29
Full

Hourly Weather History & Observations

Time (EDT) Temp. Heat Index Dew Point Humidity Pressure Visibility Wind Dir Wind Speed Gust Speed Precip Events Conditions
12:53 AM 79.0 °F - 75.0 °F 88% 30.09 in 10.0 mi East 4.6 mph - N/A   Clear
1:53 AM 80.1 °F 85.4 °F 75.9 °F 87% 30.06 in 10.0 mi NNE 5.8 mph - N/A   Clear
2:53 AM 79.0 °F - 75.9 °F 90% 30.06 in 10.0 mi Calm Calm - N/A   Clear
3:53 AM 79.0 °F - 75.9 °F 90% 30.04 in 10.0 mi NE 3.5 mph - N/A   Clear
4:53 AM 79.0 °F - 75.9 °F 90% 30.04 in 10.0 mi NE 4.6 mph - N/A   Clear
5:53 AM 78.1 °F - 73.9 °F 87% 30.03 in 10.0 mi ENE 4.6 mph - N/A   Clear
6:53 AM 78.1 °F - 75.0 °F 90% 30.03 in 10.0 mi ENE 4.6 mph - N/A   Partly Cloudy
7:53 AM 79.0 °F - 75.0 °F 88% 30.04 in 10.0 mi East 4.6 mph - N/A   Clear
8:53 AM 82.9 °F 90.8 °F 75.9 °F 79% 30.05 in 10.0 mi ENE 5.8 mph - N/A   Clear
9:53 AM 84.9 °F 94.1 °F 75.9 °F 74% 30.05 in 10.0 mi East 11.5 mph - N/A   Scattered Clouds
10:53 AM 88.0 °F 98.5 °F 75.9 °F 67% 30.04 in 10.0 mi ESE 11.5 mph - N/A   Mostly Cloudy
11:53 AM 88.0 °F 96.5 °F 73.9 °F 63% 30.04 in 10.0 mi East 12.7 mph - N/A   Clear
12:53 PM 88.0 °F 97.5 °F 75.0 °F 65% 30.02 in 10.0 mi ESE 11.5 mph - N/A   Partly Cloudy
1:53 PM 86.0 °F 93.8 °F 73.9 °F 67% 30.00 in 10.0 mi East 12.7 mph - N/A   Partly Cloudy
2:53 PM 89.1 °F 96.0 °F 72.0 °F 57% 29.97 in 10.0 mi ESE 12.7 mph - N/A   Partly Cloudy
3:53 PM 88.0 °F 94.7 °F 72.0 °F 59% 29.95 in 10.0 mi East 8.1 mph - N/A   Scattered Clouds
4:53 PM 87.1 °F 94.5 °F 73.0 °F 63% 29.94 in 10.0 mi East 9.2 mph - N/A   Clear
5:53 PM 84.9 °F 92.1 °F 73.9 °F 69% 29.94 in 10.0 mi ESE 10.4 mph - N/A   Clear
6:53 PM 82.0 °F 87.9 °F 73.9 °F 76% 29.94 in 10.0 mi East 10.4 mph - N/A   Clear
7:53 PM 81.0 °F 86.2 °F 73.9 °F 79% 29.97 in 10.0 mi East 6.9 mph - N/A   Scattered Clouds
8:53 PM 82.0 °F 88.6 °F 75.0 °F 79% 29.97 in 10.0 mi East 8.1 mph - N/A   Clear
9:53 PM 82.0 °F 87.9 °F 73.9 °F 76% 29.99 in 10.0 mi East 6.9 mph - N/A   Scattered Clouds
10:53 PM 80.1 °F 85.1 °F 75.0 °F 85% 30.00 in 10.0 mi East 6.9 mph - N/A   Clear
11:53 PM 79.0 °F - 73.9 °F 84% 29.99 in 10.0 mi East 4.6 mph - N/A   Clear